Location: Newark
(41.8083°N, 72.2500°W)
Time: 21:56:37
(UTC+00:00)

Vanguard 2 - All Passes

Search period start: 06 December 2021 00:00
Search period end: 16 December 2021 00:00
Orbit: 554 x 2936 km, 32.9° (Epoch: 06 December)

Date Brightness Start Highest point End Pass type
(mag) Time Alt. Az. Time Alt. Az. Time Alt. Az.
06 Dec - 00:50:02 10° SW 00:51:19 10° SSW 00:52:37 10° SSW visible
06 Dec - 16:32:24 10° S 16:34:41 14° SSE 16:37:13 10° ESE daylight
06 Dec - 18:37:55 10° SW 18:42:04 33° S 18:47:56 10° ESE daylight
06 Dec - 20:44:59 10° WSW 20:50:16 33° S 20:58:18 10° SE daylight
06 Dec - 22:53:42 10° WSW 22:59:19 20° SSW 23:06:49 10° SSE visible
07 Dec - 16:49:08 10° SSW 16:52:04 19° SSE 16:55:25 10° ESE daylight
07 Dec - 18:55:24 10° WSW 18:59:37 33° S 19:05:35 10° ESE daylight
07 Dec - 21:02:47 10° WSW 21:07:54 27° SSW 21:15:25 10° SE daylight
07 Dec - 23:12:50 10° SW 23:17:01 14° SSW 23:22:05 10° S visible
08 Dec - 17:06:15 10° SW 17:09:30 23° SSE 17:13:20 10° ESE daylight
08 Dec - 19:12:58 10° WSW 19:17:10 31° S 19:23:07 10° ESE daylight
08 Dec - 21:20:47 10° WSW 21:25:34 22° SSW 21:32:13 10° SSE daylight
09 Dec - 15:18:34 10° S 15:19:35 11° SSE 15:20:35 10° SE daylight
09 Dec - 17:23:34 10° SW 17:26:59 26° S 17:31:05 10° ESE daylight
09 Dec - 19:30:39 10° WSW 19:34:45 28° S 19:40:30 10° SE daylight
09 Dec - 21:39:10 10° WSW 21:43:14 17° SSW 21:48:29 10° SSE visible
10 Dec - 15:34:39 10° SSW 15:37:01 15° SSE 15:39:23 10° SE daylight
10 Dec - 17:41:01 10° SW 17:44:30 27° S 17:48:44 10° ESE daylight
10 Dec - 19:48:26 10° WSW 19:52:22 23° S 19:57:40 10° SE daylight
10 Dec - 21:58:36 10° SW 22:00:55 12° SSW 22:03:33 10° S visible
11 Dec - 15:51:35 10° SW 15:54:29 19° SSE 15:57:25 10° ESE daylight
11 Dec - 17:58:34 10° WSW 18:02:01 26° S 18:06:16 10° SE daylight
11 Dec - 20:06:28 10° WSW 20:09:59 18° SSW 20:14:30 10° SSE daylight
12 Dec - 14:03:34 10° S 14:04:23 10° SSE 14:05:09 10° SSE daylight
12 Dec - 16:08:49 10° SW 16:11:59 22° S 16:15:12 10° ESE daylight
12 Dec - 18:16:13 10° WSW 18:19:34 24° S 18:23:39 10° SE daylight
12 Dec - 20:24:58 10° SW 20:27:36 14° SSW 20:30:42 10° S daylight
13 Dec - 14:19:17 10° SSW 14:21:54 15° SSE 14:24:15 10° SE daylight
13 Dec - 16:26:13 10° SW 16:29:30 24° S 16:32:51 10° ESE daylight
13 Dec - 18:34:01 10° WSW 18:37:07 20° S 18:40:50 10° SE daylight
14 Dec - 14:36:05 10° SW 14:39:26 19° S 14:42:21 10° ESE daylight
14 Dec - 16:43:44 10° WSW 16:47:01 24° S 16:50:24 10° SE daylight
14 Dec - 18:52:05 10° SW 18:54:41 15° SSW 18:57:40 10° SSE daylight
15 Dec - 12:46:41 10° S 12:49:03 12° SSE 12:51:07 10° SE daylight
15 Dec - 14:53:15 10° SW 14:56:58 22° S 15:00:10 10° ESE daylight
15 Dec - 17:01:23 10° WSW 17:04:32 22° S 17:07:48 10° SE daylight
15 Dec - 19:10:53 10° SW 19:12:13 11° SSW 19:13:39 10° S daylight
